Regional Weather Roundup
Issued by NWS

Home | Current Version | Previous Version | Graphics & Text | Print | Product List | Glossary On
Versions: 1 2 3 4 5 6 7 8 9 10 11 12 13 14 15 16 17 18 19 20 21 22 23 24 25 26 27 28 29 30 31 32 33 34 35 36 37 38 39 40 41 42 43 44 45 46 47 48 49 50
000
ASUS45 KBOU 172207
RWRCO

WEATHER ROUNDUP FOR COLORADO
NATIONAL WEATHER SERVICE DENVER/BOULDER CO
300 PM MST WED DEC 17 2014

NOTE: "FAIR" INDICATES FEW OR NO CLOUDS BELOW 12000 FEET WITH NO
SIGNIFICANT WEATHER AND/OR OBSTRUCTIONS TO VISIBILITY.

COZ001>005-013-030-031-172300-
...NORTHWEST COLORADO...

CITY           SKY/WX    TMP DP  RH WIND       PRES   REMARKS
CRAIG          CLOUDY    29  26  89 W3        29.96S
HAYDEN         PTSUNNY   30  25  80 W5        29.94S WCI  25
MEEKER         CLOUDY    31  28  89 CALM      29.93S
MOUNT WERNER   NOT AVBL
STEAMBOAT SPGS CLOUDY    30  27  89 CALM      29.94R
WALDEN         CLOUDY    27  21  80 NW5       29.92R WCI  21
$$

COZ006>008-011-172300-
...WEST CENTRAL VALLEYS...

CITY           SKY/WX    TMP DP  RH WIND       PRES   REMARKS
GRAND JUNCTION LGT RAIN  37  35  92 NW6       29.95R
MONTROSE       CLOUDY    42  28  57 N5        29.94S
EAGLE          CLOUDY    30  25  80 CALM      29.96F
RIFLE          CLOUDY    38  29  70 CALM      29.93S
DELTA          CLOUDY    45  35  66 SW7       29.93S
NUCLA          CLOUDY    37  32  81 NW3       29.98S
$$

COZ017>023-064>068-172300-
...SOUTHWEST COLORADO...

CITY           SKY/WX    TMP DP  RH WIND       PRES   REMARKS
DURANGO        CLOUDY    38  26  62 S6        29.93F
CORTEZ         LGT SNOW  34  33  96 W9        29.97R FOG     WCI  27
PAGOSA SPRINGS LGT SNOW  33  29  86 CALM      29.95S
TELLURIDE      LGT SNOW  28  27  95 W6        29.93S VSB 1   WCI  22
WOLF CREEK PAS FOG       18  18 100 MISG      29.93F VSB 1/4
$$

COZ009-010-012-014-032>034-037-058>063-172300-
...CENTRAL COLORADO...

CITY           SKY/WX    TMP DP  RH WIND       PRES   REMARKS
ASPEN          CLOUDY    33  26  75 N7        29.90S WCI  27
BUENA VISTA    CLOUDY    37  22  55 SE6       29.89F
COPPER MTN     SNOW      23  18  80 W16       29.92S VSB 1/2 WCI  10
BERTHOUD PASS  SNOW      14  10  85 MISG      29.93F VSB<1/4
COTTONWOOD PAS PTSUNNY   32  19  59 SE3       29.91S
GUNNISON       PTSUNNY   27  18  69 CALM      29.96F
KREMMLING      CLOUDY    23  16  74 CALM      29.96S
LEADVILLE      LGT SNOW  24  19  81 W3        29.89F
MONARCH PASS   SNOW      18  16  93 MISG      30.01F VSB 1/2
SALIDA         PTSUNNY   37  25  60 CALM      29.97F
SUNLIGHT       LGT SNOW  27  25  93 CALM      29.94S VSB 3/4
WILKERSON PASS CLOUDY    23  19  86 CALM      29.93F
$$

COZ069>075-172300-
...SAN LUIS VALLEY/SANGRE DE CRISTO MOUNTAINS...

CITY           SKY/WX    TMP DP  RH WIND       PRES   REMARKS
ALAMOSA        CLOUDY    29  24  82 E3        29.93S
LA VETA PASS   LGT SNOW  23  21  93 SW5       29.91S VSB 1   WCI  17
SAGUACHE       PTSUNNY   32  27  80 SW3       29.93F
$$

COZ035-036-038>040-172300-
...NORTHERN COLORADO FRONT RANGE...

CITY           SKY/WX    TMP DP  RH WIND       PRES   REMARKS
DENVER INTL AP CLOUDY    39  27  62 CALM      29.90R
DMNS CITY PARK   N/A     41  23  48 N2        29.90S
AURORA         PTSUNNY   40  25  54 E7        29.90S
FRONT RANGE AP NOT AVBL
ERIE MUNI ARPT   N/A     40  25  54 N6        29.90S
BOULDER MUN AP CLOUDY    41  23  48 NE5       29.90R
CENTENNIAL     CLOUDY    42  22  44 E3        29.89R
BROOMFIELD     CLOUDY    41  27  56 MISG      29.90R
FORT COLLINS   CLOUDY    39  25  56 CALM      29.92S
LONGMONT       CLOUDY    43  25  49 CALM      29.93R
$$

COZ041-046-047-076>085-087-088-172300-
...PIKES PEAK/PALMER DIVIDE AND SOUTHERN FOOTHILLS...

CITY           SKY/WX    TMP DP  RH WIND       PRES   REMARKS
COLO. SPRINGS  LGT RAIN  37  32  82 CALM      29.91S
A. F. ACADEMY  MIX PCPN  35  32  86 S3        29.90S
ELLICOTT       NOT AVBL
FALCON         CLOUDY    37  28  71 W3        29.91S
FORT CARSON    CLOUDY    37  30  74 N9        29.89S
LIMON          CLOUDY    33  24  69 CALM      29.91R
MONUMENT HILL  CLOUDY    34  30  86 SW5       29.89S WCI  30
TRINIDAD       CLOUDY    37  27  67 SE3       29.88S
$$

COZ042>045-048>051-090-091-172300-
...NORTHEAST COLORADO...

CITY           SKY/WX    TMP DP  RH WIND       PRES   REMARKS
GREELEY ARPT   CLOUDY    34  21  60 SE7       29.91S WCI  28
AKRON          CLOUDY    23  22  96 SE8       29.94R WCI  14
BURLINGTON     CLOUDY    25  22  88 CALM      29.97R FOG
WRAY           CLOUDY    24  24  98 SE7       30.01S WCI  16
STERLING       CLOUDY    27  27 100 CALM      29.96F
HOLYOKE        NOT AVBL
FORT MORGAN    CLOUDY    18  15  86 NE5       29.95S WCI  11
$$

COZ086-089-092>099-172300-
...SOUTHEAST COLORADO...

CITY           SKY/WX    TMP DP  RH WIND       PRES   REMARKS
PUEBLO         CLOUDY    34  22  61 E3        29.91S
LA JUNTA       CLOUDY    29  24  82 NE6       29.94S WCI  23
LAMAR          CLOUDY    29  25  85 NE7       29.95R WCI  22
SPRINGFIELD      N/A     33  25  72 N14       29.90S WCI  23
$$



USA.gov is the U.S. government's official web portal to all federal, state and local government web resources and services.